Cozumel, Mexico

2:03 AM EST on August 21, 2017 (GMT -0500)
Cozumel

Weather History for MMCZ - August, 2012

Change the Weather History Date:

Saturday, August 4, 2012

  Actual Average Record
Temperature  
Mean Temperature 78 °F -  
Max Temperature 86 °F 89 °F 95 °F (2005)
Min Temperature 71 °F 76 °F 69 °F (2014)
Cooling Degree Days 14    
Growing Degree Days 28 (Base 50)    
Moisture  
Dew Point 72 °F    
Average Humidity 79    
Maximum Humidity 100    
Minimum Humidity 62    
Precipitation  
Precipitation 0.00 in - - ()
Sea Level Pressure  
Sea Level Pressure 29.96 in    
Wind  
Wind Speed 3 mph ()    
Max Wind Speed 8 mph    
Max Gust Speed -    
Visibility 7.5 miles    
Events      
Averages and records for this station are not official NWS values.
T = Trace of Precipitation, MM = Missing Value Source: Averaged Metar Reports

Daily Weather History Graph

Daily Weather History Graph

Search for Another Location

Airport or City:

Trip Planner

Search our weather history database for the weather conditions in past years. The results will help you decide how hot, cold, wet, or windy it might be!

Date:

Astronomy

Aug. 04, 2012 Rise Set
Actual Time 6:23 AM CDT 7:23 PM CDT
Civil Twilight 6:00 AM CDT 7:47 PM CDT
Nautical Twilight 5:32 AM CDT 8:14 PM CDT
Astronomical Twilight 5:04 AM CDT 8:42 PM CDT
Moon 9:06 PM CDT (8/4) 8:40 AM CDT (8/4)
Length of Visible Light 13h 46m
Length of Day
12h 59m
Waning Gibbous, 92% of the Moon is Illuminated
Aug 4
Waning Gibbous
Aug 9
Last Quarter
Aug 17
New
Aug 24
First Quarter
Aug 31
Full

Hourly Weather History & Observations

Time (CDT) Temp. Heat Index Dew Point Humidity Pressure Visibility Wind Dir Wind Speed Gust Speed Precip Events Conditions
12:40 AM 75.2 °F - 71.6 °F 89% 29.94 in 7.0 mi ENE 4.6 mph - N/A   Scattered Clouds
1:42 AM 73.4 °F - 71.6 °F 94% 29.95 in 7.0 mi Calm Calm - N/A   Scattered Clouds
2:40 AM 71.6 °F - 71.6 °F 100% 29.94 in 7.0 mi Calm Calm - N/A   Scattered Clouds
3:40 AM 71.6 °F - 69.8 °F 94% 29.96 in 7.0 mi Calm Calm - N/A   Scattered Clouds
4:48 AM 71.6 °F - 69.8 °F 94% 29.92 in 7.0 mi Calm Calm - N/A   Scattered Clouds
5:42 AM 71.6 °F - 69.8 °F 94% 29.93 in 7.0 mi Calm Calm - N/A   Scattered Clouds
6:40 AM 71.6 °F - 69.8 °F 94% 29.91 in 7.0 mi Calm Calm - N/A   Scattered Clouds
7:55 AM 78.8 °F - 73.4 °F 83% 29.95 in 8.0 mi ESE 3.5 mph - N/A   Scattered Clouds
8:46 AM 80.6 °F 85.4 °F 73.4 °F 79% 29.95 in 8.0 mi SE 4.6 mph - N/A   Scattered Clouds
9:45 AM 84.2 °F 90.9 °F 73.4 °F 70% 30.01 in 8.0 mi SE 6.9 mph - N/A   Scattered Clouds
10:47 AM 86.0 °F 91.8 °F 71.6 °F 62% 29.98 in 8.0 mi SSE 6.9 mph - N/A   Scattered Clouds
11:45 AM 86.0 °F 93.4 °F 73.4 °F 66% 29.98 in 8.0 mi South 6.9 mph - N/A   Scattered Clouds
12:40 PM 84.2 °F 90.9 °F 73.4 °F 70% 29.95 in 8.0 mi SSE 4.6 mph - N/A   Mostly Cloudy
1:48 PM 86.0 °F 93.4 °F 73.4 °F 66% 29.97 in 8.0 mi SE 8.1 mph - N/A   Mostly Cloudy
2:42 PM 84.2 °F 88.4 °F 69.8 °F 62% 29.97 in 8.0 mi SE 6.9 mph - N/A   Mostly Cloudy
3:40 PM 84.2 °F 90.9 °F 73.4 °F 70% 29.98 in 8.0 mi SE 8.1 mph - N/A   Mostly Cloudy
4:49 PM 86.0 °F 91.8 °F 71.6 °F 62% 29.95 in 8.0 mi SSE 8.1 mph - N/A   Mostly Cloudy
5:43 PM 84.2 °F 89.6 °F 71.6 °F 66% 29.95 in 8.0 mi SE 5.8 mph - N/A   Mostly Cloudy
6:44 PM 82.4 °F 87.2 °F 71.6 °F 70% 29.95 in 8.0 mi ESE 6.9 mph - N/A   Scattered Clouds
7:43 PM 78.8 °F - 71.6 °F 78% 29.98 in 8.0 mi East 3.5 mph - N/A   Scattered Clouds
8:41 PM 77.0 °F - 71.6 °F 83% 30.00 in 7.0 mi East 3.5 mph - N/A   Scattered Clouds
9:49 PM 75.2 °F - 69.8 °F 83% 30.02 in 7.0 mi Calm Calm - N/A   Scattered Clouds
10:46 PM 75.2 °F - 69.8 °F 83% 29.99 in 7.0 mi East 4.6 mph - N/A   Clear
11:42 PM 73.4 °F - 71.6 °F 94% 29.99 in 7.0 mi East 3.5 mph - N/A   Clear